Simultaneous Nadir Overpasses (SNOs) Predictions

Prediction of SNOs between GOES-16 and LANDSAT-8 Satellite Orbit:

Table of predicted SNOs for the next 14.0 days since TLE Epoch: 5/4/2019
Index Date Time (GOES-16) GOES-16 Lat,Lon LANDSAT-8 Lat,Lon Distance(km) Time Diff (sec)
1 05/05/2019 03:02:59 0.01, -75.22 0.43, -73.20 228.93 80
2 05/05/2019 15:26:55 -0.01, -75.24 0.66, -78.36 355.07 80
3 05/07/2019 15:12:06 -0.00, -75.26 0.01, -75.42 17.78 80
4 05/09/2019 15:02:37 0.00, -75.28 -0.63, -72.47 319.92 80
5 05/10/2019 03:24:01 -0.00, -75.26 -0.53, -77.65 271.99 80
6 05/12/2019 03:09:13 -0.01, -75.29 0.13, -74.71 65.79 80
7 05/14/2019 02:57:04 -0.01, -75.32 0.72, -71.76 404.01 80
8 05/14/2019 15:18:21 0.01, -75.34 0.34, -76.93 179.84 80
9 05/16/2019 15:06:13 0.01, -75.38 -0.28, -73.98 159.14 80
10 05/17/2019 03:30:18 -0.01, -75.38 -0.83, -79.18 432.13 80




NCC Satellite Simultaneous Nadir Overpasses (SNOs) Prediction Service
